N1IER Weather Reports


time (UTC)temp
C
wind
direction
speed
KPH
gust
KPH
rain 1hr
cm
rain 24hr
cm
rain mn
cm
humidity
%
barometer
mb
20260505070012 10 200 0.0 4.8 0.00 0.00 0.00 87 1011.4
20260505064518 10 217 0.0 1.6 0.00 0.00 0.00 87 1011.4
20260505063024 10 202 0.0 4.8 0.00 0.00 0.00 86 1011.5
20260505061510 10 180 0.0 6.4 0.00 0.00 0.00 86 1011.5
20260505060012 10 195 0.0 8.0 0.00 0.00 0.00 86 1011.5
20260505054516 10 202 0.0 3.2 0.00 0.00 0.00 86 1011.6
20260505053020 10 210 0.0 6.4 0.00 0.00 0.00 85 1011.5
20260505051541 10 207 1.6 4.8 0.00 0.00 0.00 85 1011.5
20260505041527 11 222 0.0 11.3 0.00 0.00 0.00 83 1011.7
20260505040026 11 213 0.0 4.8 0.00 0.00 0.00 82 1011.7
20260505034514 11 221 0.0 6.4 0.00 0.00 0.00 82 1011.6
20260505033018 11 184 0.0 6.4 0.00 0.00 0.00 82 1011.7
20260505031520 11 185 0.0 3.2 0.00 0.00 0.00 82 1011.7
20260505030029 11 201 0.0 6.4 0.00 0.00 0.00 82 1012.0
20260505024526 11 267 0.0 4.8 0.00 0.00 0.00 82 1012.0
20260505023010 11 190 0.0 4.8 0.00 0.00 0.00 81 1011.9
20260505021518 11 192 0.0 9.7 0.00 0.00 0.00 81 1012.1
20260505020020 11 184 1.6 9.7 0.00 0.00 0.00 80 1012.1
20260505014524 11 274 1.6 11.3 0.00 0.00 0.00 79 1012.1
20260505013029 11 194 1.6 11.3 0.00 0.00 0.00 78 1012.0
20260505011517 11 209 1.6 19.3 0.00 0.00 0.00 76 1011.7
20260505010017 12 187 1.6 11.3 0.00 0.00 0.00 76 1011.4
20260505004521 12 187 1.6 14.5 0.00 0.00 0.00 75 1011.2
20260505003024 12 190 3.2 12.9 0.00 0.00 0.00 74 1011.0
20260505001528 12 236 0.0 25.7 0.00 0.00 0.00 72 1010.8
20260505000017 12 268 1.6 24.1 0.00 0.00 0.00 70 1010.6
20260504234523 13 167 1.6 11.3 0.00 0.00 0.00 68 1010.2
20260504233024 13 213 1.6 12.9 0.00 0.00 0.00 66 1010.0
20260504231525 13 202 3.2 16.1 0.00 0.00 0.00 63 1009.8
20260504230028 14 169 4.8 16.1 0.00 0.00 0.00 60 1009.6
20260504224517 15 282 3.2 16.1 0.00 0.00 0.00 56 1009.6
20260504223021 15 165 3.2 16.1 0.00 0.00 0.00 54 1009.5
20260504221523 16 194 1.6 17.7 0.00 0.00 0.00 51 1009.2
20260504220030 16 196 4.8 29.0 0.00 0.00 0.00 48 1009.3
20260504214518 17 184 3.2 22.5 0.00 0.00 0.00 48 1009.1
20260504213022 17 142 6.4 19.3 0.00 0.00 0.00 49 1009.2
20260504211523 17 232 4.8 19.3 0.00 0.00 0.00 48 1009.0
20260504210032 17 189 4.8 19.3 0.00 0.00 0.00 47 1009.0
20260504204530 18 171 9.7 30.6 0.00 0.00 0.00 45 1008.7
20260504203023 18 208 3.2 16.1 0.00 0.00 0.00 44 1008.6
20260504201520 18 207 4.8 22.5 0.00 0.00 0.00 42 1008.7
20260504200025 18 259 8.0 25.7 0.00 0.00 0.00 40 1008.5
20260504194525 18 224 8.0 27.4 0.00 0.00 0.00 43 1008.7
20260504193030 19 185 8.0 30.6 0.00 0.00 0.00 40 1008.6
20260504191524 19 225 8.0 41.8 0.00 0.00 0.00 39 1008.7
20260504190022 19 182 6.4 25.7 0.00 0.00 0.00 39 1008.9
20260504184530 19 67 3.2 20.9 0.00 0.00 0.00 42 1009.0
20260504183032 19 175 8.0 22.5 0.00 0.00 0.00 42 1009.0
20260504181529 20 252 4.8 25.7 0.00 0.00 0.00 42 1009.4
20260504180024 19 187 8.0 30.6 0.00 0.00 0.00 38 1009.3
20260504174524 20 254 4.8 22.5 0.00 0.00 0.00 37 1009.1
20260504173026 20 182 6.4 27.4 0.00 0.00 0.00 38 1008.9
20260504171528 20 161 4.8 24.1 0.00 0.00 0.00 38 1009.2
20260504081513 6 210 0.0 0.0 0.00 0.03 0.00 75 1011.2